Temp
13 15 15 16 17 17 16 16 16 15 14 14 14 14 14 15 15 16 15 12 11 13 14 14 14 15 15 15 13 10 8 7 6 6 5 5 4 4 4 3 4 3 4 4 3 3 3 3 4 5 6 8 9 9 10 10 10 11 10 9 9 9 8 8 8 8 7 7 6 6 5 5 5 6 6 5 6 7 7 8 8 8 8 8 8 7
12 14 16 16 16 15 14 14 14 13 13 13 14 14 14 14 15 16 14 11 10 12 14 14 13 14 15 13 10 8 6 5 5 4 4 4 4 3 3 3 3 3 3 4 3 3 3 3 3 4 5 6 7 8 9 9 9 10 10 10 9 9 8 8 8 8 7 7 7 7 6 6 5 5 6 6 6 7 7 7 8 8 8 8 8 7
14 15 16 14 12 12 11 11 11 12 12 13 13 13 14 14 15 15 12 9 10 11 14 14 12 14 13 10 8 7 5 5 4 4 3 3 3 3 3 3 3 3 3 3 3 3 3 3 3 3 3 4 5 6 7 8 9 9 9 9 9 9 8 8 8 8 7 7 7 8 7 7 6 6 6 6 7 7 6 6 7 7 7 7 7 7
16 16 13 10 10 12 11 10 10 12 12 13 14 13 14 15 14 15 12 10 10 11 13 12 11 13 12 8 7 6 5 5 4 4 3 3 3 3 3 2 2 2 2 2 2 3 2 2 2 2 2 3 3 3 4 5 7 8 8 9 9 9 8 8 8 7 7 7 7 7 7 6 6 5 6 5 5 5 4 4 5 6 7 7 7 7
16 14 8 8 10 12 12 11 11 12 13 14 14 13 14 14 14 14 13 12 12 12 11 10 13 14 12 9 8 6 6 5 4 4 4 3 3 3 3 2 2 2 2 2 1 2 2 2 2 1 1 2 2 2 2 3 4 5 6 6 7 8 8 8 7 7 7 7 6 6 5 5 5 5 4 4 3 3 3 3 4 5 7 7 7 7
15 10 7 10 11 10 12 12 12 13 14 14 14 13 13 13 13 13 12 12 13 14 11 10 15 16 13 11 9 7 7 5 5 4 3 3 2 2 2 2 2 2 2 2 1 1 2 1 1 1 1 1 1 1 1 2 2 3 4 4 5 6 7 8 8 7 7 7 6 6 5 5 4 4 4 4 4 3 4 4 5 5 6 6 7 7
12 8 7 10 11 10 11 12 12 11 13 14 12 10 10 11 11 12 12 12 14 15 12 10 14 15 14 12 9 7 6 5 5 4 3 3 2 2 1 1 1 1 1 1 1 1 1 1 1 1 0 0 0 0 0 1 1 2 3 3 3 4 5 6 7 7 7 6 6 6 5 5 5 4 4 4 4 4 5 5 4 4 5 6 6 7
11 9 8 9 10 11 12 13 12 11 13 14 9 7 9 10 11 11 11 12 13 14 12 11 13 13 14 13 9 8 7 5 5 4 3 3 2 2 1 1 1 1 1 0 0 1 1 1 0 0 0 -0 -0 -1 -0 0 0 0 1 2 3 3 3 4 4 5 6 6 6 6 5 5 5 5 5 5 5 4 5 4 3 3 4 4 5 6
11 11 11 10 11 12 13 12 10 10 13 12 7 7 9 10 11 11 11 12 12 12 12 13 12 12 14 13 8 8 8 6 4 4 3 3 2 2 1 1 1 0 0 0 -0 0 0 -0 -0 -0 -1 -1 -1 -1 -1 -1 -0 -0 -0 0 1 2 2 2 3 3 4 5 5 6 6 5 5 5 5 5 5 4 4 4 3 3 3 3 4 4
11 9 9 10 12 12 12 9 7 9 12 9 6 7 8 8 10 10 11 12 11 10 12 13 13 12 14 14 10 9 8 5 4 4 3 3 2 2 1 1 0 0 0 0 -0 -0 -1 -1 -1 -1 -1 -1 -2 -2 -2 -2 -1 -1 -1 -1 -0 0 0 1 2 2 3 3 3 4 4 5 5 5 5 5 5 5 4 4 3 3 3 3 3 3
10 7 7 9 10 10 9 6 5 7 8 7 7 10 10 10 10 9 10 11 10 11 13 13 13 13 13 13 9 7 5 3 3 3 3 2 2 1 1 1 0 0 0 -0 -0 -1 -1 -1 -1 -2 -2 -2 -2 -2 -2 -2 -2 -2 -2 -2 -1 -1 -1 -1 -0 1 1 2 2 2 2 3 3 4 5 5 5 5 4 4 3 3 3 3 3 3
11 8 9 8 6 7 8 8 6 5 6 7 9 11 12 12 11 10 10 10 10 13 13 10 10 11 13 11 6 3 2 2 2 3 2 2 2 1 1 1 0 -0 -0 -0 -0 -1 -1 -2 -2 -2 -2 -2 -2 -2 -2 -3 -2 -2 -2 -2 -2 -2 -2 -2 -2 -1 -0 0 1 1 1 2 2 2 3 3 4 4 4 4 3 3 3 3 3 3
13 10 8 7 6 6 9 11 9 7 7 9 11 11 12 13 13 12 12 11 12 14 11 9 9 11 12 9 4 3 2 2 2 2 2 1 1 1 1 0 0 -0 -0 -1 -1 -1 -1 -1 -2 -2 -2 -2 -3 -3 -3 -3 -3 -3 -3 -3 -3 -3 -3 -3 -3 -2 -2 -1 -1 -1 0 1 1 1 2 2 2 2 3 3 3 3 3 3 2 2
14 11 8 8 9 7 9 13 13 11 10 10 12 12 12 12 12 11 12 13 13 13 11 9 9 11 11 6 2 3 2 2 2 1 1 1 1 1 0 0 -0 -0 -1 -1 -1 -1 -1 -1 -2 -2 -2 -2 -3 -3 -3 -3 -3 -3 -3 -3 -3 -3 -3 -3 -3 -3 -3 -3 -2 -2 -2 -1 -0 0 1 1 1 1 2 2 2 3 3 3 2 2
13 13 11 11 11 8 9 11 12 12 12 11 11 12 11 12 11 11 12 12 12 13 12 9 9 12 12 6 2 3 2 1 2 1 1 1 1 1 0 -0 -0 -1 -1 -1 -1 -1 -1 -1 -2 -2 -2 -2 -2 -3 -3 -3 -3 -3 -3 -3 -3 -3 -4 -4 -4 -3 -3 -3 -3 -3 -3 -2 -2 -1 -1 0 0 1 1 1 1 2 2 2 2 2
13 14 12 9 8 8 9 9 8 11 12 10 9 11 11 11 12 11 12 12 11 11 11 10 10 9 6 3 2 2 2 1 1 1 1 1 1 1 0 -0 -1 -1 -1 -1 -1 -1 -1 -1 -2 -2 -2 -2 -2 -3 -3 -3 -3 -3 -3 -4 -4 -4 -4 -4 -4 -4 -4 -4 -3 -3 -3 -3 -3 -2 -2 -1 -1 -1 0 1 1 1 1 1 2 2
12 13 12 9 6 7 8 8 8 10 12 10 9 11 11 10 11 11 11 11 9 9 10 11 11 6 3 3 3 2 2 1 1 1 1 1 1 0 -0 -1 -1 -1 -1 -1 -1 -1 -1 -1 -1 -2 -2 -2 -2 -3 -3 -3 -3 -4 -4 -4 -4 -4 -4 -4 -5 -4 -4 -4 -4 -4 -4 -4 -4 -3 -3 -3 -2 -2 -1 -1 -0 0 1 1 1 1
10 11 13 12 10 8 5 5 7 8 10 11 10 11 10 9 10 10 9 9 9 9 10 11 11 8 8 6 2 1 2 1 1 1 0 0 0 -0 -0 -1 -1 -1 -1 -1 -1 -0 -0 -1 -1 -1 -2 -2 -2 -3 -3 -3 -3 -4 -4 -4 -4 -4 -4 -5 -5 -5 -5 -5 -5 -4 -4 -4 -4 -4 -4 -4 -3 -3 -2 -2 -1 -0 0 0 1 1
9 10 12 11 10 9 5 6 9 8 7 9 9 10 10 9 9 10 8 8 8 8 9 10 10 10 10 6 1 1 1 0 0 0 -1 -0 -0 -1 -0 -1 -1 -1 -1 -1 -0 -0 -0 -1 -1 -1 -2 -2 -2 -3 -3 -3 -4 -4 -4 -4 -4 -4 -5 -5 -5 -5 -5 -5 -5 -5 -5 -5 -5 -5 -4 -4 -4 -3 -3 -2 -2 -1 -1 -0 0 0
9 10 10 9 9 9 9 9 11 11 9 7 8 9 9 8 9 9 8 8 8 8 8 9 9 9 7 4 2 1 0 -0 -1 -1 -1 -1 -1 -1 -1 -1 -1 -1 -1 -1 -1 -0 -0 -1 -1 -1 -2 -2 -2 -3 -3 -3 -4 -4 -4 -4 -4 -4 -5 -5 -5 -6 -6 -6 -6 -6 -6 -5 -5 -5 -5 -5 -4 -4 -3 -3 -2 -2 -1 -1 -1 -0
9 10 10 10 10 9 11 12 11 12 10 9 9 9 8 8 9 9 8 8 7 8 8 7 8 8 3 2 1 -0 -1 -0 -1 -2 -1 -1 -1 -1 -0 -1 -1 -1 -1 -1 -1 -0 -0 -1 -1 -2 -2 -2 -2 -3 -3 -4 -4 -4 -5 -5 -5 -5 -5 -5 -6 -6 -6 -6 -6 -6 -6 -6 -6 -6 -5 -5 -5 -5 -4 -4 -3 -3 -2 -2 -2 -1
9 9 9 10 10 10 12 12 10 9 10 9 9 9 9 9 8 7 7 7 6 7 7 6 7 6 2 1 1 -0 -1 -1 -1 -1 -1 -1 -1 -0 -0 -0 -0 -1 -1 -1 -1 -0 -0 -1 -1 -2 -2 -2 -3 -3 -4 -4 -4 -5 -5 -5 -5 -5 -5 -6 -6 -6 -7 -7 -7 -7 -7 -7 -6 -6 -6 -6 -5 -5 -5 -4 -4 -4 -4 -3 -3 -2
8 8 8 8 9 11 12 9 6 7 8 8 8 8 8 8 7 7 7 6 5 5 5 5 6 4 -0 -1 0 -1 -1 -1 -1 -1 -1 -1 0 -0 0 0 -0 -1 -1 -1 -1 -0 -1 -1 -2 -2 -2 -2 -3 -3 -4 -4 -5 -5 -5 -5 -5 -6 -6 -6 -6 -7 -7 -7 -7 -7 -7 -7 -7 -7 -7 -6 -6 -5 -5 -5 -5 -5 -5 -5 -4 -4
7 7 7 7 9 11 10 7 5 6 7 8 8 7 6 6 6 5 5 5 5 5 5 4 5 3 -1 -1 -0 -1 -1 -1 -1 -0 -0 -0 0 -0 0 0 -0 -1 -1 -1 -1 -1 -1 -1 -2 -2 -2 -3 -3 -4 -4 -4 -5 -5 -5 -5 -6 -6 -6 -7 -7 -7 -7 -8 -8 -8 -8 -8 -8 -7 -7 -7 -6 -6 -6 -6 -6 -6 -6 -6 -5 -5
7 8 8 7 8 9 9 8 7 7 8 9 8 5 4 3 4 3 3 4 3 4 5 4 5 3 -1 -1 -1 -1 -1 -0 -0 0 -0 -0 0 -0 -0 -0 -1 -1 -1 -1 -1 -1 -1 -2 -2 -2 -3 -3 -3 -4 -4 -4 -5 -5 -5 -6 -6 -6 -6 -7 -7 -7 -8 -8 -8 -8 -8 -8 -8 -8 -8 -8 -7 -7 -7 -7 -7 -7 -7 -6 -6 -5
7 7 7 6 6 7 7 8 9 8 8 8 7 4 2 2 2 2 3 3 3 4 4 3 3 2 -0 -1 -1 -1 -1 -1 -1 -0 -0 -0 -0 -0 -1 -1 -1 -1 -1 -1 -1 -1 -2 -2 -2 -3 -3 -3 -4 -4 -4 -4 -5 -5 -5 -6 -6 -6 -6 -7 -7 -8 -8 -8 -8 -9 -9 -9 -9 -8 -9 -9 -9 -8 -8 -8 -8 -7 -7 -7 -6 -6
6 6 7 7 7 7 7 8 9 7 6 7 6 4 2 -0 -1 1 3 3 2 2 3 2 -0 -1 -1 -1 -1 -2 -1 -1 -1 -1 -1 -1 -1 -1 -1 -1 -1 -1 -1 -1 -2 -2 -2 -2 -2 -3 -3 -3 -4 -4 -4 -5 -5 -5 -5 -6 -6 -6 -7 -7 -8 -8 -8 -9 -9 -9 -9 -9 -9 -9 -9 -10 -10 -9 -9 -8 -8 -8 -7 -7 -7 -7
5 5 6 6 6 7 7 7 7 6 6 5 4 2 0 -1 -2 0 1 1 0 0 1 1 -2 -2 -1 -2 -2 -2 -1 -2 -1 -1 -1 -1 -1 -1 -2 -2 -2 -2 -1 -2 -2 -2 -2 -3 -3 -3 -3 -4 -4 -4 -4 -4 -5 -5 -6 -6 -6 -6 -7 -7 -8 -8 -9 -9 -9 -9 -9 -10 -10 -10 -11 -10 -10 -10 -9 -9 -8 -8 -8 -8 -8 -8
5 5 5 4 5 6 6 6 6 6 5 4 1 0 -0 -2 -2 -1 -0 -0 -1 -2 -1 -1 -2 -2 -2 -3 -3 -2 -2 -2 -2 -2 -2 -2 -2 -2 -2 -2 -2 -2 -2 -2 -2 -2 -3 -3 -3 -3 -3 -4 -4 -4 -4 -4 -5 -5 -6 -6 -6 -7 -7 -8 -8 -8 -9 -9 -9 -9 -10 -10 -11 -11 -11 -11 -10 -10 -10 -9 -9 -9 -9 -8 -8 -8
4 5 4 2 3 5 5 5 5 4 3 2 0 -0 -0 -1 -1 -1 -2 -1 -1 -2 -1 -1 -2 -1 -2 -3 -3 -2 -2 -2 -2 -2 -2 -2 -2 -2 -3 -3 -3 -3 -2 -2 -3 -3 -3 -3 -3 -3 -4 -4 -4 -4 -4 -5 -5 -5 -6 -6 -6 -7 -7 -8 -8 -8 -9 -9 -9 -10 -11 -11 -11 -12 -11 -11 -11 -10 -10 -10 -10 -9 -9 -9 -9 -9
4 4 3 1 2 4 4 4 4 3 3 1 -0 -0 -0 -1 -1 -2 -2 -2 -2 -2 -1 -2 -2 -2 -1 -2 -2 -2 -2 -2 -2 -2 -2 -3 -3 -3 -3 -3 -3 -3 -3 -3 -3 -3 -3 -3 -3 -3 -4 -4 -4 -5 -5 -5 -5 -5 -6 -6 -6 -7 -8 -8 -8 -9 -9 -10 -10 -11 -11 -11 -12 -12 -11 -11 -11 -11 -11 -11 -11 -10 -10 -9 -9 -9
3 3 2 2 2 3 4 3 3 3 3 0 -2 -2 -1 -2 -2 -2 -2 -2 -2 -3 -3 -2 -3 -3 -3 -3 -2 -2 -2 -2 -3 -3 -3 -3 -3 -3 -3 -3 -3 -3 -3 -4 -4 -4 -4 -4 -3 -3 -4 -4 -5 -5 -5 -5 -5 -5 -6 -6 -6 -7 -8 -8 -9 -9 -10 -10 -11 -11 -12 -11 -11 -12 -12 -12 -12 -12 -12 -12 -11 -11 -11 -10 -10 -9
0 1 2 2 1 2 4 3 2 3 2 -1 -3 -3 -2 -2 -2 -2 -2 -2 -2 -3 -3 -4 -4 -4 -3 -3 -3 -3 -3 -3 -3 -3 -3 -3 -3 -3 -3 -3 -3 -4 -4 -4 -4 -4 -4 -4 -4 -4 -4 -5 -5 -5 -5 -5 -6 -6 -6 -6 -7 -7 -8 -9 -9 -10 -10 -11 -11 -11 -11 -12 -12 -12 -12 -13 -13 -13 -13 -12 -12 -12 -11 -10 -10 -10
-2 -0 1 0 -0 1 3 2 2 2 1 -1 -3 -3 -3 -3 -3 -3 -3 -3 -2 -2 -3 -4 -4 -4 -3 -3 -3 -3 -3 -3 -3 -3 -3 -3 -4 -4 -3 -3 -4 -4 -4 -4 -4 -4 -4 -4 -4 -4 -5 -5 -5 -5 -6 -6 -6 -6 -6 -7 -7 -8 -9 -9 -10 -11 -11 -11 -11 -11 -11 -12 -12 -12 -13 -13 -13 -13 -13 -13 -13 -12 -11 -11 -10 -10
-1 0 0 -2 -1 1 1 1 1 0 -1 -2 -3 -2 -3 -3 -3 -3 -3 -3 -2 -3 -4 -4 -4 -4 -3 -3 -3 -3 -3 -3 -3 -3 -3 -3 -3 -3 -3 -3 -4 -4 -4 -4 -4 -4 -4 -4 -5 -5 -5 -6 -6 -6 -6 -6 -7 -7 -7 -7 -8 -9 -9 -10 -10 -11 -11 -11 -11 -11 -12 -12 -13 -13 -13 -14 -14 -14 -14 -13 -13 -13 -12 -11 -10 -10
-0 0 -0 -1 -1 -0 0 0 -1 -1 -2 -3 -3 -3 -3 -3 -3 -4 -4 -3 -2 -3 -4 -5 -4 -4 -3 -3 -3 -3 -3 -3 -3 -3 -3 -3 -3 -3 -4 -4 -4 -4 -4 -5 -5 -4 -4 -5 -5 -6 -6 -6 -6 -7 -7 -7 -7 -7 -7 -8 -9 -9 -10 -10 -11 -11 -11 -11 -11 -11 -12 -13 -13 -14 -14 -14 -14 -14 -14 -14 -14 -13 -12 -11 -11 -10
0 0 0 0 0 -0 -1 -0 -0 -1 -2 -4 -4 -4 -4 -4 -4 -5 -5 -4 -4 -4 -4 -4 -4 -4 -4 -4 -4 -3 -3 -4 -5 -4 -3 -3 -3 -3 -4 -4 -4 -4 -4 -4 -5 -5 -5 -6 -6 -6 -6 -7 -7 -7 -7 -7 -7 -8 -8 -9 -9 -10 -10 -10 -10 -11 -11 -11 -11 -12 -13 -13 -14 -14 -15 -15 -15 -14 -14 -14 -14 -13 -13 -12 -11 -11
0 0 0 0 -0 -1 -1 -1 -1 -1 -3 -5 -5 -4 -3 -4 -3 -4 -5 -5 -4 -4 -4 -4 -4 -4 -4 -4 -4 -4 -4 -5 -6 -5 -4 -4 -4 -4 -4 -4 -4 -4 -4 -4 -5 -5 -6 -6 -6 -7 -7 -7 -8 -8 -8 -8 -8 -9 -9 -9 -9 -10 -10 -10 -11 -11 -11 -11 -12 -13 -13 -14 -14 -15 -15 -15 -15 -15 -15 -15 -14 -14 -13 -12 -11 -11
-1 -1 -0 -0 -2 -2 -2 -3 -2 -2 -4 -6 -5 -4 -3 -3 -3 -3 -5 -5 -4 -4 -4 -4 -5 -5 -5 -5 -5 -5 -6 -7 -7 -5 -5 -4 -4 -4 -4 -4 -4 -4 -4 -5 -5 -6 -6 -7 -7 -7 -8 -8 -8 -8 -9 -9 -9 -9 -9 -9 -10 -10 -10 -11 -11 -11 -12 -12 -13 -13 -14 -14 -15 -15 -15 -15 -15 -15 -15 -15 -15 -14 -13 -12 -12 -11
-2 -3 -2 -2 -3 -3 -3 -4 -3 -3 -4 -5 -4 -4 -3 -3 -3 -4 -6 -5 -4 -4 -4 -4 -5 -5 -5 -5 -6 -6 -7 -7 -7 -6 -5 -5 -5 -4 -4 -5 -5 -5 -5 -5 -6 -7 -7 -7 -7 -8 -8 -9 -9 -9 -10 -10 -10 -10 -10 -10 -10 -11 -11 -11 -11 -12 -12 -13 -13 -14 -14 -15 -15 -15 -16 -15 -15 -15 -15 -15 -15 -14 -13 -13 -12 -12
-3 -4 -3 -4 -4 -3 -4 -4 -3 -3 -4 -5 -4 -3 -3 -3 -4 -6 -7 -5 -4 -4 -5 -4 -5 -5 -5 -5 -6 -7 -7 -6 -6 -6 -5 -5 -5 -5 -5 -5 -5 -6 -6 -7 -7 -8 -7 -8 -8 -8 -9 -9 -9 -10 -10 -10 -11 -10 -10 -11 -11 -12 -12 -12 -12 -12 -13 -13 -14 -14 -15 -15 -16 -16 -16 -16 -16 -16 -15 -15 -15 -14 -14 -13 -13 -12
-5 -4 -4 -4 -4 -4 -4 -5 -4 -3 -3 -4 -4 -3 -3 -5 -6 -7 -5 -5 -5 -5 -5 -5 -5 -6 -6 -6 -6 -6 -6 -6 -6 -6 -6 -6 -6 -6 -5 -6 -7 -7 -7 -8 -8 -8 -8 -8 -9 -9 -9 -10 -10 -11 -11 -11 -11 -11 -11 -12 -12 -12 -12 -12 -13 -13 -13 -14 -15 -15 -16 -16 -16 -16 -16 -16 -16 -16 -16 -16 -15 -14 -14 -13 -13 -13
-6 -5 -4 -4 -5 -5 -5 -5 -6 -5 -3 -3 -4 -4 -4 -5 -6 -6 -5 -5 -5 -5 -5 -6 -6 -6 -7 -7 -7 -6 -7 -7 -6 -6 -6 -6 -6 -6 -6 -7 -8 -8 -8 -8 -8 -9 -10 -10 -10 -10 -11 -11 -11 -12 -12 -12 -12 -12 -12 -13 -13 -13 -13 -13 -13 -14 -14 -15 -16 -16 -16 -17 -17 -17 -17 -17 -17 -16 -16 -16 -15 -15 -14 -14 -13 -13
-5 -5 -6 -5 -5 -6 -6 -6 -5 -4 -3 -3 -4 -5 -5 -5 -5 -5 -5 -5 -5 -5 -6 -6 -6 -6 -6 -7 -7 -7 -7 -7 -7 -7 -7 -7 -7 -7 -8 -8 -9 -9 -9 -9 -10 -10 -11 -11 -11 -11 -12 -12 -12 -13 -13 -13 -13 -13 -13 -13 -13 -14 -14 -14 -14 -15 -15 -16 -16 -16 -17 -17 -17 -17 -17 -17 -17 -16 -16 -16 -15 -15 -14 -14 -14 -13
-4 -4 -5 -5 -4 -5 -6 -5 -4 -3 -3 -3 -3 -4 -4 -4 -4 -4 -5 -6 -6 -6 -6 -7 -7 -7 -7 -7 -7 -7 -7 -7 -8 -8 -8 -8 -8 -8 -9 -9 -10 -10 -10 -10 -11 -11 -11 -11 -12 -12 -12 -13 -13 -13 -13 -13 -14 -14 -14 -14 -14 -14 -14 -14 -15 -16 -16 -17 -17 -17 -17 -18 -18 -17 -17 -17 -17 -16 -16 -16 -15 -15 -14 -14 -14 -14
-4 -4 -4 -5 -5 -5 -4 -4 -3 -3 -3 -3 -4 -4 -4 -4 -4 -5 -5 -6 -6 -6 -6 -7 -7 -7 -7 -7 -7 -8 -8 -8 -8 -8 -8 -9 -9 -9 -9 -10 -10 -10 -10 -11 -11 -12 -12 -12 -12 -13 -13 -14 -14 -14 -14 -14 -14 -14 -14 -14 -14 -14 -15 -15 -16 -17 -17 -17 -17 -17 -18 -18 -18 -17 -17 -17 -17 -16 -16 -16 -16 -15 -15 -14 -14 -14
-4 -4 -4 -5 -5 -6 -5 -4 -4 -4 -4 -4 -5 -4 -4 -5 -5 -5 -6 -6 -6 -6 -7 -7 -7 -7 -7 -7 -7 -8 -8 -9 -9 -9 -9 -9 -9 -10 -10 -10 -11 -10 -11 -12 -12 -12 -12 -13 -13 -14 -14 -14 -14 -14 -15 -15 -15 -15 -14 -14 -14 -15 -16 -16 -17 -17 -17 -17 -18 -18 -18 -18 -17 -17 -17 -17 -17 -16 -16 -16 -16 -16 -15 -15 -15 -14
-5 -4 -5 -6 -6 -6 -6 -5 -4 -5 -5 -5 -5 -5 -5 -5 -5 -6 -6 -6 -6 -6 -7 -7 -7 -7 -7 -7 -8 -8 -9 -9 -9 -10 -10 -10 -10 -10 -11 -11 -11 -11 -12 -12 -12 -13 -13 -14 -14 -14 -14 -15 -15 -15 -15 -15 -15 -15 -14 -15 -15 -16 -17 -17 -17 -18 -18 -18 -18 -18 -18 -18 -18 -17 -17 -17 -17 -16 -16 -16 -16 -16 -16 -16 -16 -15
-5 -5 -6 -6 -6 -6 -6 -5 -5 -6 -6 -6 -6 -6 -6 -6 -6 -6 -6 -6 -7 -7 -7 -7 -7 -7 -8 -8 -8 -9 -9 -10 -9 -10 -10 -10 -11 -11 -11 -11 -11 -12 -12 -13 -13 -13 -14 -14 -14 -15 -15 -15 -15 -15 -15 -15 -15 -15 -15 -16 -16 -17 -17 -18 -18 -18 -18 -18 -18 -18 -18 -18 -18 -18 -17 -17 -17 -17 -17 -17 -17 -17 -17 -16 -16 -16
-5 -6 -6 -7 -7 -7 -7 -6 -6 -7 -8 -7 -6 -6 -6 -6 -6 -7 -7 -7 -8 -8 -8 -8 -8 -8 -8 -8 -8 -9 -10 -10 -10 -10 -10 -11 -11 -12 -12 -12 -12 -13 -13 -13 -13 -14 -14 -15 -15 -15 -15 -15 -15 -15 -15 -15 -15 -15 -16 -17 -17 -18 -18 -19 -19 -19 -18 -18 -18 -18 -18 -18 -18 -18 -18 -18 -17 -17 -17 -17 -17 -17 -17 -17 -16 -17
-6 -6 -7 -7 -8 -8 -7 -6 -6 -7 -8 -7 -7 -7 -7 -6 -7 -7 -8 -8 -8 -8 -8 -9 -9 -9 -9 -9 -9 -10 -10 -10 -10 -10 -11 -11 -12 -12 -12 -12 -13 -13 -14 -14 -14 -14 -15 -15 -15 -16 -16 -16 -16 -15 -15 -15 -16 -16 -17 -17 -18 -18 -18 -19 -19 -19 -18 -18 -18 -19 -19 -19 -18 -18 -18 -18 -18 -18 -17 -17 -17 -17 -17 -17 -17 -17
Height
829 824 821 815 809 808 811 812 810 811 814 816 815 813 811 807 800 793 798 809 813 809 797 794 796 788 787 792 797 805 811 815 818 819 820 821 821 821 820 819 817 815 814 812 808 804 799 795 791 788 785 784 783 783 783 784 784 784 785 785 785 787 789 790 792 795 798 800 802 804 806 807 809 810 812 813 814 816 817 819 820 822 824 826 829 832
831 824 814 810 809 812 816 816 816 818 819 819 816 813 809 806 799 793 801 812 815 811 797 794 798 791 791 799 807 816 818 822 825 824 825 825 824 825 823 822 820 818 816 813 809 805 801 797 793 790 788 786 784 783 784 784 784 785 785 785 784 786 787 788 789 792 794 795 797 799 800 802 805 806 806 808 810 812 814 815 816 818 821 823 825 828
825 816 810 814 819 821 824 825 824 822 821 818 816 815 809 804 798 794 806 816 816 811 796 793 798 791 795 809 816 821 823 827 829 828 829 828 827 827 825 825 823 820 818 814 811 807 804 800 797 794 791 790 788 786 785 785 785 785 785 785 784 785 786 786 788 790 791 792 793 794 795 796 799 801 801 803 805 807 809 811 813 815 817 820 822 824
815 809 817 826 824 822 824 828 828 823 820 816 813 813 805 801 802 798 805 814 814 809 798 799 801 792 799 814 820 824 826 828 830 829 830 829 828 829 828 827 825 822 820 817 814 811 808 804 801 798 796 794 791 789 788 787 786 786 785 785 784 784 784 785 787 788 789 790 791 792 793 795 797 798 800 802 803 805 807 810 813 813 813 817 818 820
810 813 829 831 825 822 821 824 825 819 813 810 810 810 803 801 805 801 802 807 805 803 807 808 792 780 793 806 813 822 824 826 828 828 829 830 830 831 829 828 826 825 823 821 818 815 811 808 805 803 801 798 795 793 791 790 788 787 786 785 784 784 784 784 785 787 788 789 791 792 794 796 797 798 799 801 802 804 805 807 809 809 809 811 814 816
812 823 833 827 825 825 821 820 820 817 811 805 807 810 807 805 806 805 806 808 798 791 804 807 783 772 786 797 807 816 819 823 826 827 829 831 832 832 831 830 828 827 826 824 822 819 816 813 811 808 805 803 799 797 796 793 791 788 787 785 784 784 783 784 784 785 786 787 788 790 791 793 794 795 796 796 797 798 799 800 802 804 805 806 807 810
819 831 834 826 824 826 824 819 818 821 814 805 811 820 818 814 813 811 811 810 796 784 797 805 791 781 782 788 804 814 817 822 824 826 830 831 832 833 833 832 831 829 828 826 824 821 819 816 814 812 809 807 804 802 799 796 793 790 788 787 785 785 784 784 785 784 785 785 786 786 786 787 789 789 790 791 793 794 794 795 799 802 802 802 803 805
822 828 831 828 825 823 820 815 817 823 814 806 821 829 822 816 814 811 811 806 797 791 794 795 794 790 778 782 803 808 811 821 824 827 831 831 833 834 835 835 833 833 830 829 826 823 821 819 817 816 814 812 809 806 802 798 796 793 790 789 787 786 785 784 784 784 784 783 783 784 784 784 785 785 786 787 789 790 791 793 796 799 800 800 800 801
821 823 825 827 824 818 814 817 824 824 812 812 828 830 821 820 815 812 810 803 802 804 793 783 791 792 774 778 802 803 804 819 826 831 833 833 835 835 835 836 834 835 833 830 829 826 824 823 821 820 819 816 813 809 805 801 799 797 794 792 789 788 787 786 785 784 784 783 782 782 782 781 781 782 784 785 787 788 789 790 791 794 796 798 798 798
821 827 829 825 821 816 817 828 834 826 816 822 833 829 824 825 818 816 813 805 810 811 791 776 782 784 766 765 787 796 805 824 829 831 835 835 837 837 837 838 837 836 834 832 830 829 828 827 825 823 821 819 816 812 808 805 802 799 797 795 792 790 789 788 787 786 785 784 783 782 782 781 780 781 782 783 785 786 787 787 787 789 791 793 795 795
824 834 833 828 825 823 827 836 839 833 829 832 831 820 815 816 817 819 813 810 814 800 781 777 778 781 770 768 791 809 821 835 833 832 836 836 837 839 838 839 838 836 833 831 831 830 830 829 827 824 822 821 819 815 810 807 805 802 800 798 796 794 792 789 788 787 787 785 784 783 783 782 782 782 781 781 781 782 783 783 784 785 785 787 789 790
820 828 828 830 834 834 831 831 836 839 836 831 823 813 807 803 806 812 810 815 810 781 777 791 792 787 774 776 809 831 834 839 837 835 838 837 838 839 839 838 837 836 834 833 832 831 831 829 827 825 823 823 821 817 813 810 808 806 804 802 800 798 795 792 790 788 787 786 785 784 783 782 782 782 782 781 781 780 780 780 780 781 781 783 784 786
811 822 829 832 835 835 828 818 821 830 831 825 816 812 808 797 795 797 794 797 787 771 782 799 798 789 777 792 823 833 835 839 838 839 839 838 840 839 839 839 838 838 837 836 835 834 832 830 829 827 827 828 825 819 815 813 812 810 808 806 804 802 799 796 794 791 789 787 785 785 783 782 781 781 781 780 781 781 780 780 780 780 780 780 781 782
809 819 829 828 826 832 827 811 805 812 818 818 810 807 805 800 801 799 787 782 775 771 786 800 799 782 775 808 835 831 836 840 837 841 840 839 841 839 840 841 840 840 839 838 838 836 836 834 833 832 831 830 825 819 817 816 815 813 811 809 807 805 802 800 797 794 792 789 787 786 784 783 781 780 779 779 778 779 779 780 780 780 779 779 779 779
818 811 816 817 817 827 826 815 810 809 810 813 809 808 808 802 803 803 790 783 778 770 779 796 797 773 768 810 837 833 838 841 838 842 841 841 842 840 842 841 841 841 839 839 839 836 837 835 834 833 830 827 823 819 818 817 816 815 813 811 810 808 805 802 800 797 794 791 789 787 785 783 782 779 778 777 776 776 776 777 778 778 778 778 777 777
820 806 811 821 826 828 823 819 823 816 806 814 819 813 811 803 798 800 790 786 790 786 784 784 781 787 804 826 836 835 837 839 841 842 841 842 842 841 843 842 841 842 839 839 838 836 836 834 833 831 827 826 823 821 821 819 818 816 814 813 811 809 806 804 802 799 796 794 791 788 786 783 782 779 778 776 775 774 774 773 773 774 775 776 776 776
825 810 809 821 829 828 824 823 826 819 806 814 819 808 806 806 802 803 796 792 802 803 789 769 768 801 826 827 830 835 836 838 841 842 842 842 842 841 842 842 842 841 839 838 837 835 834 832 831 829 826 825 823 822 822 821 820 818 817 815 812 810 807 804 803 800 798 795 792 789 787 784 782 779 777 775 774 772 771 771 770 770 770 771 773 774
841 823 804 810 818 822 833 832 824 823 816 810 811 805 807 812 807 808 810 805 804 799 782 766 769 785 790 803 832 839 834 840 842 842 844 843 842 843 842 842 842 840 839 837 835 834 833 831 830 828 827 826 825 824 823 822 821 820 818 815 812 809 807 804 803 801 799 796 793 790 788 785 782 780 777 775 772 770 769 768 768 767 767 767 768 770
849 835 810 810 818 821 831 830 815 817 821 815 814 811 810 814 807 806 816 814 805 797 783 772 773 774 771 796 834 840 836 844 844 843 846 844 843 844 842 842 841 839 838 835 834 832 831 831 829 828 827 826 825 825 823 822 820 819 817 814 812 809 807 806 803 801 799 796 794 791 788 786 783 780 777 774 772 770 768 766 765 765 764 764 764 765
848 842 822 814 821 821 819 818 807 804 815 819 819 814 812 817 811 805 811 810 805 800 793 784 776 779 795 814 831 839 842 845 846 847 848 846 845 844 842 842 840 838 838 834 833 831 830 830 829 828 827 825 825 824 822 821 819 817 815 813 811 809 807 805 803 800 798 795 793 791 788 785 782 780 777 774 772 769 767 765 763 762 761 761 762 761
846 845 833 815 815 818 808 805 804 801 807 813 813 812 813 813 809 808 808 808 809 803 798 798 784 786 818 833 832 841 846 845 848 850 848 846 845 842 840 839 837 837 836 833 832 830 828 829 827 827 826 825 824 823 821 820 818 816 815 812 810 808 806 804 802 800 797 794 792 789 786 784 781 778 776 773 771 769 766 764 762 761 759 758 759 759
845 843 837 821 816 812 800 802 811 811 810 811 809 809 811 811 812 818 814 811 818 810 802 806 792 795 830 841 836 845 847 846 849 848 847 845 841 840 838 836 835 834 833 832 830 829 828 827 826 825 825 823 822 821 820 819 817 816 814 811 809 807 805 803 800 798 796 793 791 788 785 783 779 777 774 771 769 767 765 764 761 760 758 756 756 756
851 847 843 832 819 807 801 810 820 820 816 815 814 812 814 816 817 821 816 813 821 817 813 814 802 811 842 846 841 848 847 847 849 845 845 842 838 839 836 834 834 833 832 831 829 828 827 827 826 825 823 822 821 820 819 817 816 814 812 810 808 806 804 802 799 797 794 792 790 787 784 782 778 775 773 770 768 765 764 762 760 758 756 754 753 752
854 848 844 837 817 800 803 816 823 822 817 814 815 819 824 825 824 826 824 822 824 817 815 818 807 817 846 848 843 849 846 845 845 841 842 839 836 836 833 832 833 831 831 830 828 828 826 826 826 824 823 821 820 819 818 816 814 813 811 809 807 804 802 800 798 796 793 790 787 785 783 780 777 774 771 769 766 764 762 760 758 756 754 752 750 749
852 842 841 842 828 812 809 812 814 816 813 809 814 826 836 836 835 837 833 832 830 817 814 818 807 815 843 849 844 846 844 842 841 839 839 836 834 833 832 832 831 829 830 828 827 827 825 825 825 823 822 820 818 818 816 814 813 811 809 807 805 803 801 799 797 794 792 789 785 782 780 777 774 772 769 767 764 762 760 758 756 754 751 749 748 747
855 846 844 848 844 836 827 815 810 813 814 814 819 831 841 844 844 841 833 832 830 820 816 820 817 823 840 846 844 844 843 841 839 836 835 834 833 832 832 831 830 828 827 826 825 824 823 824 823 822 821 818 817 816 813 812 810 808 807 805 803 801 799 797 795 792 790 788 785 781 777 774 772 769 767 765 762 760 758 756 753 751 749 747 746 744
859 854 847 844 842 836 826 815 814 821 824 821 822 833 845 855 856 848 838 835 836 832 827 832 842 846 843 843 846 846 842 840 837 834 833 833 833 833 832 831 829 827 825 823 823 821 821 821 820 819 818 816 815 813 810 809 807 805 804 802 800 799 797 795 793 790 788 786 783 781 777 774 771 767 765 762 760 758 755 753 751 748 747 745 743 742
860 854 846 844 839 830 825 823 825 829 829 828 834 843 852 861 863 853 845 843 846 846 838 838 852 856 847 847 850 846 843 842 839 838 838 836 835 834 833 831 829 826 824 822 820 819 819 819 818 817 815 814 812 810 808 807 804 802 800 798 797 795 793 792 790 788 786 783 781 779 776 774 770 767 763 760 757 755 752 750 748 745 743 742 740 738
860 852 847 851 846 835 833 834 833 832 832 838 849 854 857 864 864 859 856 854 857 859 851 847 852 852 850 853 852 847 846 845 843 842 840 838 836 834 832 830 828 824 822 820 818 818 818 817 815 814 813 811 810 808 806 804 802 800 797 795 793 792 790 789 787 785 783 780 779 776 774 772 768 765 762 759 756 753 750 747 745 742 740 738 736 735
862 852 852 862 855 841 837 837 838 841 841 846 857 858 858 861 861 862 863 860 860 862 855 852 854 850 850 854 853 849 848 846 844 842 839 836 835 833 831 828 825 822 820 818 818 818 817 816 813 812 810 809 807 806 803 801 799 797 794 792 790 788 787 786 783 782 780 778 776 773 771 768 765 762 760 757 754 751 748 745 742 740 737 735 733 731
862 855 857 865 857 842 840 842 842 844 844 851 860 861 861 862 861 865 867 863 862 862 856 854 855 850 849 853 853 850 848 846 844 841 837 835 833 831 829 826 822 819 818 817 818 817 815 813 811 809 808 806 804 803 800 798 796 794 792 790 788 786 785 783 781 779 777 775 773 770 768 765 762 760 757 755 752 749 746 743 740 737 735 732 730 727
866 862 861 864 859 847 842 844 844 841 843 857 870 869 867 868 866 866 867 865 866 867 862 859 858 855 854 855 852 849 847 845 843 840 836 833 831 829 827 823 819 817 816 816 815 813 812 810 808 806 804 803 801 799 797 795 792 790 788 786 785 784 782 781 779 777 775 773 770 768 766 763 760 758 755 753 750 746 743 741 738 735 732 729 727 725
879 873 863 866 869 855 842 844 847 841 841 858 878 880 875 874 871 868 868 867 866 866 866 865 865 863 859 856 852 848 846 844 841 839 835 832 829 827 824 820 817 815 814 813 811 810 808 807 805 803 801 800 798 796 794 792 789 787 785 783 781 780 779 778 776 774 772 770 768 765 763 761 758 756 754 751 748 744 741 738 735 733 730 727 725 723
887 880 870 875 875 859 847 849 849 842 848 868 883 884 881 879 877 874 873 870 866 864 866 868 867 863 858 854 852 848 845 842 839 836 834 832 829 825 821 818 816 814 812 811 809 807 805 804 803 801 798 797 795 793 791 789 786 784 781 780 778 777 776 775 773 772 769 767 765 763 761 759 756 754 752 749 746 743 739 736 733 730 728 725 723 720
884 878 877 883 879 863 856 858 857 854 864 879 882 880 881 880 877 876 873 868 864 864 867 868 864 860 856 853 850 847 843 840 837 835 833 830 827 823 819 816 815 813 811 809 807 805 803 802 800 798 796 794 792 789 787 785 782 780 778 777 776 774 773 772 771 769 767 764 762 760 758 756 754 751 749 746 744 741 737 734 731 728 725 723 720 718
881 878 878 880 876 867 861 862 866 868 875 883 881 879 881 878 875 878 874 865 862 864 867 867 862 857 854 851 847 843 839 836 835 833 831 828 825 822 819 816 814 812 809 808 805 803 801 800 798 796 794 791 789 787 784 781 779 776 774 773 772 771 770 769 767 766 764 761 759 757 755 753 751 748 746 743 741 738 735 732 729 726 723 721 718 716
877 876 875 872 869 870 869 865 864 866 875 887 888 883 884 884 881 883 879 869 865 866 866 863 859 855 852 849 845 841 836 834 832 829 827 826 824 821 819 816 813 809 807 805 803 800 798 797 796 794 792 789 788 785 782 779 776 773 771 770 768 767 766 765 764 762 761 759 756 754 753 751 748 746 743 741 738 735 733 730 726 724 721 718 716 714
879 878 877 874 871 873 875 873 867 866 878 894 895 885 884 884 879 878 878 871 864 864 863 860 858 854 850 846 843 839 836 833 830 826 823 823 822 819 816 814 810 807 804 801 799 797 796 795 793 792 790 788 786 784 780 778 775 772 769 766 764 763 762 761 760 759 758 756 754 752 750 748 746 744 741 739 737 734 731 728 725 722 719 717 714 712
885 885 880 879 883 885 887 886 879 876 886 897 893 884 882 880 873 873 875 867 860 860 860 857 856 853 848 846 843 839 838 834 827 823 822 821 820 817 814 810 807 804 801 798 797 796 794 793 791 789 788 786 783 781 779 776 773 770 766 763 761 760 759 758 758 756 755 753 751 749 747 745 743 741 739 737 734 732 729 726 723 720 718 715 713 710
892 894 889 890 895 895 895 894 886 881 889 894 887 883 881 875 871 872 870 861 857 859 859 856 854 851 848 846 843 842 841 835 826 822 821 820 817 815 812 808 804 801 799 798 797 796 793 791 788 786 785 783 781 779 777 774 771 768 764 761 759 758 757 756 755 753 752 750 748 747 745 743 741 739 737 734 732 729 727 724 721 719 716 714 711 709
903 903 901 902 902 898 897 900 891 881 886 890 884 880 878 874 874 877 873 864 860 860 858 856 854 851 847 845 843 841 839 833 827 823 820 817 815 812 810 807 803 800 799 798 797 795 792 789 786 784 782 781 779 777 775 772 769 765 761 759 757 756 755 753 752 750 749 747 746 744 742 740 738 736 734 732 729 727 724 722 719 717 715 712 710 708
916 910 905 905 906 902 900 903 895 882 881 886 882 878 878 880 882 880 873 866 862 859 857 855 853 851 848 845 842 838 834 830 826 822 818 816 813 809 806 805 804 802 800 798 795 792 790 787 785 782 780 779 778 776 773 770 767 762 759 757 755 754 753 750 749 747 746 744 743 741 739 737 735 734 731 729 727 724 721 719 717 715 713 711 709 707
921 915 911 909 910 910 906 904 899 888 881 883 882 879 881 884 883 876 868 865 863 859 857 855 853 850 848 844 840 836 832 828 824 820 817 814 811 808 806 805 804 802 800 796 793 791 789 787 784 781 779 777 775 774 771 768 763 760 757 756 754 752 750 748 746 744 743 741 739 737 735 733 732 730 728 726 724 722 719 717 715 713 711 709 708 706
916 918 920 915 910 915 917 909 899 890 883 882 883 884 882 880 877 872 867 865 862 859 857 854 851 849 846 842 838 834 830 826 822 819 817 813 810 808 806 805 803 801 797 794 792 791 788 785 782 780 778 776 773 771 768 765 761 758 757 755 752 750 748 746 744 743 741 739 737 735 733 731 729 728 726 724 722 720 718 716 714 712 710 708 707 705
915 917 922 917 910 912 914 906 895 888 884 882 884 883 880 876 873 871 868 865 862 859 857 853 849 846 843 840 837 832 828 825 822 820 817 813 810 808 806 804 802 799 796 794 792 790 787 784 781 778 776 774 772 768 766 764 761 758 755 753 750 748 746 744 743 741 739 738 736 733 731 729 727 726 724 722 721 718 716 714 712 711 709 708 706 705
915 914 915 914 909 906 901 894 891 889 884 883 883 881 878 875 871 869 867 864 861 857 855 852 848 844 841 838 834 830 827 825 822 819 816 813 810 807 805 803 800 797 794 792 790 787 785 782 779 776 773 771 769 767 764 762 759 756 753 751 748 747 745 743 741 740 738 736 734 732 729 727 725 723 722 720 718 717 715 713 711 710 708 707 706 705
914 913 912 911 911 909 899 890 888 887 885 883 881 877 875 873 870 868 867 863 860 857 854 851 847 842 838 835 831 828 826 824 821 818 815 811 808 805 803 801 798 795 792 790 788 785 783 780 777 774 771 768 766 764 762 759 757 754 751 749 747 745 744 742 740 738 736 734 732 730 727 725 723 721 720 718 716 715 713 711 710 709 707 706 705 704
915 913 913 912 912 909 900 890 887 886 884 883 881 877 874 872 869 867 866 862 859 856 853 849 846 841 837 833 830 827 824 823 821 817 812 809 806 803 802 799 795 792 790 788 786 784 781 779 776 773 770 767 764 762 759 757 755 752 750 748 746 744 742 740 739 737 735 733 730 728 726 724 722 720 718 716 715 713 712 710 709 708 706 705 704 704
916 914 914 913 909 903 896 891 888 884 880 879 878 876 873 870 867 864 862 860 857 854 850 846 843 840 836 832 829 826 823 821 819 815 811 807 805 803 800 797 793 790 788 786 784 782 780 778 775 772 769 765 763 760 757 755 753 751 749 747 745 743 741 739 737 735 733 731 729 727 725 723 721 719 717 715 714 712 710 709 708 707 705 704 703 703
917 916 915 914 910 904 898 894 891 888 882 877 876 874 871 868 865 861 859 856 854 851 847 843 839 836 834 831 828 825 822 819 816 813 809 807 804 802 798 794 792 789 787 785 782 780 779 776 774 771 767 764 762 759 756 753 751 749 747 745 743 742 740 738 736 734 731 729 727 725 724 722 720 718 716 714 712 711 709 707 706 705 705 704 703 702
917 917 916 916 914 907 899 894 893 891 885 879 875 874 871 868 864 860 857 855 851 849 846 843 838 833 829 828 827 825 822 818 814 811 808 805 804 801 797 794 791 788 785 783 781 778 776 774 772 769 766 763 760 757 754 752 750 748 746 745 743 741 739 737 735 733 730 728 726 724 723 721 719 717 715 713 711 710 708 706 705 704 703 702 702 701
Wind_Speed
1 4 6 8 8 5 5 8 10 7 5 6 7 8 10 11 11 11 4 4 2 5 9 8 10 16 13 9 9 11 15 14 13 13 13 12 11 12 13 14 14 14 14 18 22 24 25 25 25 22 16 13 13 13 16 19 22 25 24 26 35 36 37 41 41 40 38 35 34 33 33 33 34 39 41 39 40 42 43 43 42 41 40 38 38 37
1 6 8 7 6 5 3 5 6 5 5 6 8 9 9 9 11 10 3 3 3 2 6 4 8 13 7 10 11 13 14 14 13 13 13 13 12 11 13 14 14 12 13 17 22 25 27 28 28 25 21 18 14 12 13 16 19 23 24 23 29 33 33 39 43 41 37 36 39 39 40 39 36 38 43 43 44 46 45 46 46 43 42 40 39 39
4 9 7 2 2 2 2 1 4 6 7 7 6 7 8 6 8 8 2 3 3 3 6 4 8 10 5 12 12 13 13 12 12 13 12 13 13 12 13 13 13 14 14 17 20 24 27 28 29 27 24 24 20 16 13 13 15 20 22 19 22 29 32 36 41 40 36 37 43 45 44 44 40 40 45 46 45 46 44 45 47 45 44 43 42 40
5 5 2 3 2 2 0 1 3 5 5 7 6 6 8 4 4 5 0 3 3 5 8 8 10 7 6 11 10 11 11 11 11 13 13 12 13 13 13 12 13 15 16 17 18 21 25 27 28 28 26 25 24 23 22 18 14 15 18 18 19 25 29 32 36 38 37 37 41 43 37 33 30 30 36 38 38 38 37 40 45 46 46 46 44 43
9 1 3 1 1 3 4 3 4 5 5 7 8 8 10 8 7 8 5 6 5 8 6 7 9 5 8 9 8 8 8 11 11 12 14 13 12 12 12 12 14 14 14 16 17 18 23 26 27 28 28 26 25 25 24 24 22 19 18 16 16 22 27 28 31 35 37 36 36 35 28 22 22 22 24 28 31 33 33 38 45 48 49 49 48 46
9 1 2 2 3 4 6 5 4 5 6 6 7 8 11 12 10 10 8 8 7 4 3 3 6 1 8 9 8 6 7 11 11 12 14 13 12 12 12 12 13 13 13 14 16 18 21 24 26 27 28 27 26 26 23 24 25 24 24 24 20 15 19 24 28 31 33 33 32 31 28 24 22 21 22 26 32 35 38 43 47 51 52 52 51 49
3 2 2 2 2 3 4 5 3 4 5 6 2 2 6 8 8 8 6 4 6 5 1 2 5 3 4 7 8 7 10 11 10 13 13 11 12 11 11 11 12 13 13 13 15 18 20 23 25 26 28 28 27 26 25 25 28 28 25 25 25 22 15 13 19 26 30 32 31 30 32 32 28 26 28 30 34 38 44 46 45 48 52 53 54 52
2 2 2 1 1 2 3 4 2 6 5 4 2 0 2 3 4 5 5 5 5 7 4 6 6 7 6 4 7 9 10 11 11 13 12 11 12 12 11 12 12 13 13 13 14 17 20 23 25 25 26 27 26 26 26 26 27 29 30 27 25 23 22 18 14 13 21 29 32 32 32 32 31 31 32 33 35 37 40 41 39 42 47 50 53 54
2 0 0 1 1 3 2 2 1 7 6 2 2 1 1 1 3 3 4 6 4 5 7 7 8 6 7 4 7 8 6 9 10 11 11 11 12 12 12 13 13 13 14 13 14 17 20 22 23 23 24 25 26 27 28 27 27 27 29 31 29 26 24 22 20 17 14 15 21 28 32 33 33 32 30 30 32 32 33 36 38 40 43 47 50 52
1 2 2 1 3 4 1 1 1 7 5 1 2 1 1 1 1 2 4 4 2 4 9 6 11 6 6 5 6 5 4 7 7 7 8 9 10 10 11 12 12 12 12 13 14 17 20 20 21 22 23 25 25 26 27 27 28 28 29 30 31 32 30 26 22 19 17 16 15 16 19 25 30 31 31 29 29 28 29 33 37 40 42 45 46 48
1 3 1 1 3 2 1 1 1 3 2 1 1 3 3 4 2 1 2 2 2 6 6 4 9 7 5 2 4 3 4 4 4 5 6 8 9 10 10 10 12 12 12 13 14 17 19 19 20 22 23 24 25 25 27 28 27 28 29 29 29 31 32 31 28 24 19 16 16 17 18 17 18 22 26 28 30 31 30 31 34 39 43 45 47 49
2 2 1 0 0 0 1 1 2 1 1 2 3 5 5 3 3 2 2 3 4 6 1 2 4 7 6 1 5 6 5 4 3 5 7 9 10 10 10 11 12 12 13 13 13 15 18 19 20 22 23 23 24 26 27 28 27 26 27 28 28 30 31 31 31 29 26 21 17 15 17 18 19 19 19 19 22 25 29 31 32 33 34 38 43 47
1 1 0 0 0 2 3 2 2 3 2 3 4 3 5 5 3 4 3 3 5 4 2 4 2 4 4 2 7 7 6 5 4 5 7 8 10 10 11 12 12 12 12 13 12 13 15 17 19 20 20 19 21 23 24 26 26 25 25 26 26 27 29 29 29 29 29 27 24 20 17 15 16 18 20 20 20 18 20 23 26 26 24 26 33 39
3 1 2 2 1 3 4 4 4 2 2 3 3 2 4 5 5 7 7 5 6 4 3 5 2 4 3 5 8 7 7 6 5 6 6 8 9 10 11 11 11 11 11 11 11 11 13 15 16 17 17 18 19 21 22 23 24 23 23 24 24 24 26 27 27 27 27 27 26 24 21 18 15 15 16 18 20 21 21 20 21 24 24 26 30 35
5 3 2 3 1 4 5 4 5 3 2 3 1 2 4 5 6 7 7 7 8 8 2 4 2 4 3 5 8 7 7 6 5 5 6 7 8 9 10 10 10 10 9 9 9 11 14 15 14 15 16 18 20 22 22 22 23 23 22 22 22 22 23 25 25 25 25 25 25 24 23 21 18 15 15 15 16 18 21 21 22 24 25 28 30 32
6 5 2 2 1 3 5 2 0 3 4 1 1 2 3 3 5 6 8 8 7 9 7 4 2 2 3 5 8 7 6 6 5 5 6 8 8 8 9 10 9 9 8 8 8 10 14 15 14 15 16 17 19 20 20 21 21 22 22 21 20 20 21 22 23 23 23 23 24 23 23 23 21 19 16 15 14 14 16 19 21 22 24 27 30 32
5 6 1 1 2 4 3 0 1 4 3 1 2 3 1 1 3 6 9 5 3 7 8 6 5 3 5 4 7 6 4 6 6 7 8 9 10 9 9 9 9 9 8 8 7 9 13 15 15 16 17 17 18 19 18 18 19 20 20 20 19 19 20 21 21 22 22 22 22 22 23 23 22 20 19 17 15 14 14 15 18 20 22 24 27 29
4 10 7 3 3 2 2 2 5 5 3 2 3 2 2 1 2 3 5 4 4 8 6 6 8 5 3 3 6 6 2 6 7 8 9 10 11 10 9 10 10 10 10 10 9 9 12 14 15 17 17 17 17 17 16 16 18 19 19 19 19 19 20 20 20 21 21 21 21 20 22 23 21 21 20 19 18 16 14 13 14 17 20 22 23 25
2 9 8 1 1 1 2 3 6 5 5 4 3 3 2 4 5 3 2 4 7 9 7 6 7 5 3 1 6 6 3 7 7 9 10 11 12 10 9 10 11 11 10 10 9 9 10 12 15 17 17 17 16 16 16 16 17 19 20 20 19 18 19 19 20 20 20 20 19 19 21 21 20 20 20 20 19 18 15 14 13 14 17 20 22 23
1 6 7 0 4 0 2 3 4 2 3 2 3 3 1 2 6 5 2 3 6 9 9 8 6 2 3 4 7 7 6 7 8 10 10 10 11 9 8 9 10 10 9 10 10 8 9 11 14 16 17 17 17 16 17 17 18 20 21 21 20 18 19 19 20 20 20 19 19 20 21 21 20 20 19 18 19 18 16 15 14 14 14 16 19 21
3 5 7 5 1 3 4 2 3 7 4 4 5 4 3 3 4 4 3 2 4 8 8 10 10 2 5 5 7 9 8 8 8 8 7 7 8 8 8 9 9 9 9 11 11 10 10 12 14 16 17 17 16 16 17 17 18 20 21 21 20 20 20 21 21 21 21 20 20 21 22 22 22 20 19 19 19 17 16 16 14 14 13 14 16 18
3 4 8 9 6 7 8 2 2 8 8 7 7 5 3 3 2 5 6 2 2 6 6 9 12 2 5 4 6 8 7 7 6 7 6 7 9 9 10 10 9 9 10 12 12 12 12 14 15 17 19 20 17 17 17 17 18 20 22 21 20 20 21 22 23 22 22 21 21 22 22 22 21 20 20 20 19 17 16 15 15 15 14 15 15 16
2 3 7 10 9 13 12 3 2 5 4 2 3 1 1 3 2 6 9 4 2 4 1 5 10 2 4 3 6 7 5 5 5 6 7 8 9 10 11 11 10 10 10 12 13 13 12 14 15 17 20 20 18 17 18 18 19 21 21 21 20 20 21 22 23 23 23 22 22 22 22 22 22 21 20 20 18 17 17 17 17 18 18 17 17 17
1 3 5 8 9 12 9 1 4 2 3 3 1 2 2 4 2 4 6 3 4 8 5 8 10 2 3 3 5 6 5 6 7 8 10 10 10 11 14 13 12 11 12 12 14 13 13 14 15 16 19 19 17 17 18 19 20 21 21 20 20 20 20 20 21 22 23 24 24 23 22 23 22 21 20 20 19 18 18 19 19 19 20 20 19 18
1 3 3 6 9 9 5 1 0 2 2 1 2 2 2 2 2 2 3 2 6 10 9 12 11 1 4 4 3 7 8 10 10 10 12 12 12 13 14 13 13 13 13 13 14 14 14 14 14 16 18 18 17 18 18 18 20 20 20 20 20 21 20 20 20 20 22 24 25 25 25 24 22 20 21 21 20 20 20 19 19 19 19 20 20 19
3 4 4 5 8 9 8 8 6 4 3 4 3 1 2 2 1 3 5 6 7 6 5 8 8 2 3 3 4 10 12 12 13 14 14 14 14 15 14 14 14 13 13 15 15 14 13 12 13 15 18 18 18 18 18 19 20 20 20 20 20 20 20 20 20 19 20 22 23 25 26 25 23 22 22 22 21 22 22 21 20 19 18 18 19 19
2 3 6 9 10 11 13 14 11 10 9 11 8 4 2 3 2 3 5 7 6 6 6 4 5 7 6 5 8 12 14 15 16 17 18 17 16 16 15 15 15 14 13 14 14 14 13 11 13 16 18 19 20 20 21 20 20 21 21 21 20 19 19 19 19 19 20 20 21 23 23 24 24 24 24 23 22 23 23 23 22 20 19 18 18 19
3 5 6 9 14 17 17 16 14 13 13 14 11 7 4 4 3 3 5 6 6 5 6 5 9 9 9 9 10 13 15 16 16 17 17 16 16 16 15 17 18 16 15 15 15 16 14 12 15 20 21 22 23 24 25 23 22 22 21 21 21 20 19 19 19 19 20 20 20 22 23 23 24 24 24 23 24 24 24 23 22 22 21 20 19 20
4 7 3 3 11 16 14 12 13 14 12 7 7 7 5 3 2 2 3 6 7 5 8 8 11 12 9 8 11 14 15 15 15 16 16 16 16 17 17 18 18 17 17 17 17 15 14 15 19 23 24 25 26 27 27 27 25 23 21 21 21 20 19 20 19 19 20 20 20 22 23 23 23 23 23 23 23 24 24 24 24 23 23 22 21 21
2 5 1 0 9 14 12 10 9 8 8 5 6 7 6 4 4 4 4 7 7 7 8 10 13 12 7 8 12 15 14 14 14 15 16 17 17 18 19 19 18 18 17 16 15 14 16 19 23 25 26 28 28 28 28 28 27 24 23 23 21 19 19 19 19 20 21 21 21 23 24 24 22 21 22 22 22 23 24 24 24 24 23 23 23 22
2 2 3 2 7 10 8 7 6 6 7 3 6 9 8 6 6 5 5 8 9 9 10 12 14 10 6 11 15 15 15 16 17 18 17 16 17 18 18 19 18 18 16 14 15 16 17 20 23 25 26 28 29 29 30 29 28 27 25 25 23 20 18 18 19 19 20 21 24 25 25 23 21 20 21 22 24 24 23 23 23 23 24 24 24 23
3 3 2 3 7 10 7 6 9 12 7 4 9 12 12 9 7 6 7 9 10 11 13 13 10 7 8 14 16 17 18 19 19 20 19 17 17 18 18 18 17 15 14 15 16 18 18 19 21 24 27 28 29 30 30 30 30 29 26 27 26 21 18 17 17 18 21 25 27 26 23 21 20 20 20 22 25 24 23 23 23 23 23 23 23 22
2 4 5 4 5 9 11 10 12 14 8 2 8 13 13 12 11 9 10 13 13 12 10 8 7 8 13 16 17 19 21 20 19 19 19 19 19 18 18 17 14 11 13 17 18 18 18 19 22 25 27 27 28 30 30 30 31 29 27 27 26 21 17 17 16 19 25 27 25 23 22 21 20 19 19 21 24 24 23 23 23 22 22 22 23 22
2 3 5 3 3 8 13 11 11 11 7 1 7 12 14 13 12 12 14 17 16 9 5 7 10 13 17 17 18 20 21 20 20 20 20 20 18 18 19 17 12 12 16 19 18 18 20 22 24 27 28 28 29 31 31 30 30 29 28 28 25 20 17 17 18 21 25 23 20 21 22 20 19 18 17 19 22 22 22 23 23 22 22 22 22 21
4 4 3 1 2 6 7 6 9 9 3 4 5 11 15 11 10 14 16 16 14 7 5 12 16 18 20 20 19 20 20 21 22 21 21 20 18 18 19 17 15 17 19 19 18 19 21 23 25 27 28 29 30 31 31 30 30 30 29 26 21 18 18 20 21 22 21 19 19 21 21 19 18 17 18 19 20 20 21 22 23 23 22 21 20 19
4 4 3 2 2 5 5 6 8 5 5 6 7 11 14 12 13 15 15 15 13 7 6 15 20 20 22 22 20 20 21 22 19 17 18 19 18 17 17 17 19 21 22 22 23 23 24 25 26 26 27 28 28 30 31 31 31 31 28 24 22 22 21 20 20 20 19 19 21 21 18 17 17 17 19 20 20 20 21 21 22 22 22 21 19 18
4 3 3 3 2 3 5 7 8 2 5 8 8 8 11 12 11 12 13 11 7 4 9 17 21 22 23 22 22 21 22 21 16 13 16 18 19 19 21 22 25 26 27 28 29 27 25 25 26 26 26 26 28 29 31 32 31 30 27 24 23 23 21 18 18 20 20 21 21 19 17 16 17 18 19 20 19 20 21 21 22 22 21 21 19 17
1 3 4 5 3 3 5 8 8 6 2 5 6 7 11 13 12 13 13 8 1 7 16 20 21 23 23 22 23 23 21 17 13 12 15 19 20 22 25 28 31 31 31 31 28 25 23 24 26 26 25 26 29 29 28 29 29 28 26 25 23 22 19 17 19 20 21 21 19 17 16 17 18 19 19 19 19 20 20 21 21 21 20 19 19 17
6 4 4 4 3 5 6 7 7 6 2 2 7 11 13 16 17 15 11 5 5 14 21 22 22 24 23 23 23 21 16 14 12 11 15 20 22 23 24 25 29 32 32 29 25 21 22 25 27 26 25 27 28 26 24 26 28 27 28 27 24 19 17 18 20 20 20 19 18 17 17 18 18 19 19 19 19 19 20 20 20 19 19 18 18 16
8 5 5 6 5 6 6 6 6 3 1 2 9 12 14 17 17 13 9 8 13 19 22 22 22 23 22 21 19 15 13 14 13 13 17 22 24 25 24 24 27 30 28 23 20 21 25 27 27 26 26 26 25 24 26 28 28 29 29 25 19 16 17 20 21 20 19 17 16 17 17 17 17 18 18 19 19 19 19 19 18 18 18 17 16 14
6 3 3 5 6 8 7 5 7 4 3 3 10 13 15 16 12 8 10 14 18 21 21 21 22 22 21 19 15 11 12 15 16 17 21 23 22 24 27 28 28 27 23 21 23 26 28 28 26 24 25 24 24 25 27 26 27 29 26 19 14 16 19 22 22 20 17 16 16 18 18 17 17 17 18 19 19 19 18 18 17 17 17 16 14 12
5 4 3 4 5 7 6 6 8 5 1 5 13 14 13 13 9 8 12 15 18 20 21 21 21 20 19 19 16 14 15 19 21 20 20 21 20 22 25 26 26 25 25 27 29 29 26 24 24 24 25 25 24 24 24 26 29 28 20 13 15 20 23 23 21 18 16 16 19 22 22 19 17 17 18 18 17 17 18 17 16 15 15 14 12 11
3 4 4 5 4 5 6 6 7 5 4 10 14 11 9 10 11 13 14 15 18 20 20 19 17 16 18 18 18 19 20 20 20 19 19 20 20 20 23 25 25 26 28 29 27 24 23 23 23 25 25 24 24 24 25 27 28 23 15 14 20 25 25 22 18 15 16 19 22 25 24 21 18 17 18 18 16 16 17 16 15 14 13 12 11 10
2 3 4 4 2 3 6 5 6 8 10 13 13 11 12 13 14 14 15 15 16 17 17 15 14 16 19 18 18 20 20 18 18 18 19 20 19 18 22 24 26 29 28 24 21 22 23 23 24 24 23 23 25 26 25 24 22 20 19 22 25 25 22 19 16 16 18 19 22 25 23 20 18 18 17 16 15 14 14 14 13 12 10 9 9 9
3 4 4 5 3 4 7 8 9 11 13 14 13 13 17 18 16 17 18 16 16 15 14 13 15 18 20 19 19 18 16 16 18 19 19 19 18 19 22 25 28 29 26 21 21 23 23 23 23 24 24 24 25 25 22 21 21 21 22 24 24 21 18 17 17 18 18 18 20 21 21 20 19 17 15 15 13 12 12 11 11 9 8 7 7 8
3 5 5 6 7 10 9 9 11 14 14 17 17 15 17 17 17 18 18 16 16 15 15 14 16 18 19 18 17 16 15 17 19 19 19 18 18 22 25 26 29 31 26 21 22 24 23 23 23 24 25 26 25 22 21 21 20 21 23 23 20 18 16 17 18 18 17 17 18 18 18 18 16 14 13 13 12 10 9 8 8 8 7 7 6 6
4 7 7 6 10 12 9 9 15 17 17 19 18 16 17 19 18 17 17 16 16 17 17 18 19 20 20 19 18 16 16 19 19 18 18 17 18 21 23 24 29 30 25 20 23 24 23 22 22 24 26 26 24 21 21 20 20 22 22 19 17 16 18 19 18 16 15 15 15 15 15 15 13 12 12 11 9 8 7 6 6 6 6 6 5 5
6 8 8 9 11 11 12 16 20 20 19 18 15 14 16 18 19 19 18 17 18 20 20 22 22 20 19 19 18 17 17 19 19 19 19 18 17 18 20 25 29 27 21 21 24 25 23 22 23 25 25 24 23 22 21 20 20 20 19 17 17 18 20 19 16 15 15 15 14 13 12 12 12 12 11 10 8 7 7 6 5 5 5 5 5 5
7 7 8 11 12 11 13 17 20 19 17 16 16 18 18 18 19 20 19 19 20 20 21 24 25 23 22 21 19 17 18 18 19 20 20 16 14 17 23 27 26 22 21 24 25 24 23 23 24 24 24 23 22 23 22 21 21 19 17 17 19 19 18 17 16 15 15 14 12 11 10 11 11 10 9 10 10 8 7 7 6 6 6 5 5 5
7 7 8 10 10 9 12 16 17 15 14 14 19 22 22 21 20 20 20 20 20 20 20 22 25 27 28 26 22 18 16 16 19 22 18 13 15 22 27 26 22 20 24 26 24 23 23 23 23 23 23 22 22 22 22 21 20 17 16 18 19 17 17 17 16 13 12 11 11 11 11 10 11 10 10 10 10 8 8 8 7 7 8 8 8 7
6 7 8 9 9 11 16 17 15 13 14 17 20 21 21 21 20 20 22 22 22 23 24 23 23 25 25 24 22 20 17 18 23 24 17 15 21 26 24 22 22 24 26 25 23 23 24 24 23 22 21 22 22 22 21 20 18 16 16 17 18 17 18 18 15 11 11 12 13 12 11 10 10 11 10 10 10 9 9 9 8 7 7 7 7 8
Wind_Direction
288 253 241 245 251 257 236 229 247 285 313 287 281 274 269 274 275 279 289 110 116 272 267 259 261 277 305 5 28 52 62 53 44 43 39 33 30 25 22 19 17 16 10 4 5 7 7 5 4 1 346 317 287 272 259 251 248 241 231 218 212 211 210 210 209 208 206 205 206 207 210 212 211 213 214 214 213 213 214 215 213 210 210 211 211 210
218 250 249 252 278 313 304 255 261 276 274 264 267 274 272 268 271 285 335 107 139 247 266 270 279 286 335 46 57 62 59 51 45 43 39 34 34 30 24 21 18 16 11 10 12 13 13 12 11 12 10 358 332 302 277 261 257 252 244 228 217 214 212 212 212 209 206 207 209 211 212 213 213 214 215 216 216 217 217 217 214 211 212 212 211 211
233 249 263 346 23 12 22 266 247 248 252 255 256 268 273 273 281 291 22 106 158 225 271 294 296 294 50 76 69 66 66 64 53 48 46 37 37 33 26 24 18 17 16 15 16 14 16 17 16 16 15 13 6 351 328 291 270 262 256 242 224 219 217 216 215 211 209 210 213 216 217 215 214 217 219 218 217 218 217 217 215 212 213 214 213 212
262 251 292 32 95 179 282 146 205 242 246 242 241 259 266 278 304 279 54 74 181 225 276 299 291 277 114 98 82 77 77 73 61 56 53 42 40 34 28 27 21 20 18 16 17 16 16 18 19 19 15 15 16 12 5 350 322 292 277 261 239 230 225 220 216 214 214 215 216 218 218 216 212 216 219 217 215 215 215 217 216 214 214 214 215 214
265 248 100 70 171 229 260 217 207 246 257 239 231 247 265 276 282 266 296 335 266 230 250 279 280 248 156 136 108 101 88 71 60 54 49 43 39 32 29 28 24 23 21 19 18 16 18 19 19 19 17 16 18 16 11 6 360 346 330 312 275 246 232 224 219 217 217 217 217 218 219 218 217 219 217 213 214 215 215 216 217 216 215 215 217 216
271 348 92 250 242 232 250 250 231 244 275 265 232 244 270 282 283 275 298 321 293 250 177 251 292 266 155 147 123 118 88 64 52 48 46 38 33 29 26 24 21 22 21 21 21 18 20 20 20 20 18 18 18 15 11 12 15 8 357 352 341 298 253 234 225 221 219 217 215 213 214 214 214 214 213 212 215 216 217 218 219 219 217 215 216 217
283 45 60 278 246 223 242 264 233 203 270 288 250 261 276 278 279 275 283 286 286 295 179 207 292 282 187 156 136 122 86 68 52 46 41 33 30 27 24 20 19 20 19 19 21 21 21 20 20 19 19 18 16 14 12 15 21 22 14 5 1 353 327 278 244 230 223 220 218 214 214 214 212 210 214 218 220 220 221 221 219 220 220 217 216 217
117 83 89 107 219 232 248 276 199 183 253 294 103 173 261 261 266 256 254 243 271 307 276 208 225 257 248 181 147 140 96 68 53 42 36 31 28 25 24 21 21 24 22 19 19 20 20 20 20 18 16 16 15 15 15 16 17 22 25 20 14 8 0 348 322 273 240 227 221 218 218 219 219 218 219 222 225 225 223 220 219 221 223 220 218 217
104 4 17 104 258 278 274 330 156 197 241 326 98 245 269 298 278 244 246 255 268 308 284 210 183 238 254 172 144 158 116 64 52 42 34 30 25 24 23 18 20 24 24 24 23 21 19 19 19 17 15 14 15 15 17 18 16 17 22 25 25 22 16 6 354 340 310 268 240 229 222 221 223 224 225 226 228 228 223 220 220 222 224 224 221 218
33 55 30 354 291 292 290 44 231 219 239 12 99 212 191 174 250 237 246 265 246 256 273 222 176 225 266 176 144 147 109 55 46 47 39 33 29 25 23 19 18 21 24 26 26 23 20 18 17 16 16 16 15 16 16 17 18 17 17 19 23 24 24 20 11 359 342 325 306 280 251 235 229 226 226 226 229 229 223 222 222 222 223 225 223 219
266 106 141 280 294 313 62 80 263 245 273 25 228 269 264 217 193 226 233 233 239 242 262 225 190 223 269 164 99 81 91 51 32 45 35 30 31 27 23 21 18 19 20 21 22 21 18 17 17 16 17 16 14 16 18 16 16 16 15 15 17 19 21 22 21 17 6 349 331 319 308 289 266 247 236 229 227 226 222 222 223 222 224 225 225 223
229 145 187 234 31 105 189 215 177 185 284 257 260 290 293 255 193 198 183 164 235 252 262 91 189 224 247 210 81 90 101 73 36 31 25 21 25 27 24 23 22 21 18 15 16 16 13 13 15 16 16 13 13 16 18 17 15 14 14 13 13 13 14 15 17 18 17 11 359 340 323 312 303 291 277 261 246 234 226 224 223 223 223 224 225 225
265 145 42 354 178 201 230 265 193 165 183 231 254 276 282 287 267 245 251 226 248 266 92 99 165 223 238 82 94 107 97 75 57 37 25 21 21 24 26 24 24 22 18 17 15 12 12 11 11 13 13 10 12 16 17 16 15 14 13 12 11 10 9 8 9 11 13 13 12 4 349 329 312 300 295 290 285 273 254 240 232 227 223 222 223 222
347 99 149 190 187 186 220 294 300 238 182 215 241 260 268 287 286 272 278 274 268 277 111 104 95 245 216 94 98 107 94 81 68 50 35 28 26 26 27 26 23 21 18 17 16 14 14 12 10 10 9 9 11 15 17 15 14 13 12 11 10 8 7 6 5 4 4 5 6 6 2 352 335 314 301 292 287 284 280 272 257 244 235 230 229 227
318 308 180 195 129 155 208 269 307 300 248 221 251 282 268 274 271 272 281 278 282 289 259 125 117 266 232 117 112 110 102 88 64 54 45 35 33 31 30 28 23 18 15 13 13 13 12 11 12 11 9 10 10 11 13 12 11 11 10 9 8 6 6 5 3 0 358 356 355 356 358 357 351 338 321 305 293 284 277 276 273 263 254 246 241 238
294 293 143 128 78 173 216 237 82 283 269 193 87 258 252 274 267 267 278 277 287 293 275 221 191 28 67 128 131 119 107 90 62 45 39 31 30 29 26 25 21 15 10 9 8 8 8 9 10 11 11 11 10 9 8 7 7 6 5 5 4 4 4 2 1 358 354 351 349 348 349 350 351 347 338 324 310 298 283 274 271 268 265 260 252 246
302 293 182 151 237 205 219 340 185 274 305 128 201 254 292 345 279 269 276 272 261 272 262 244 242 113 109 167 161 143 102 73 52 37 36 26 22 23 20 21 18 11 4 3 4 4 6 7 6 7 7 7 7 6 4 3 2 1 360 358 358 359 0 360 359 355 351 348 345 344 343 343 343 342 340 333 322 311 297 282 272 265 263 263 259 254
314 296 287 256 252 194 93 307 256 250 273 242 241 311 6 273 239 254 273 270 255 261 251 241 254 231 183 190 161 161 99 55 45 35 32 21 19 18 14 12 8 6 2 358 0 1 4 6 5 4 2 0 359 358 357 358 358 357 356 354 354 355 356 355 354 352 349 347 343 340 339 337 336 335 334 333 329 322 310 294 280 270 261 258 256 255
323 295 297 247 168 118 135 264 268 227 209 251 296 333 325 269 259 237 250 273 267 269 269 256 259 256 248 153 135 145 65 45 37 29 25 17 16 11 4 2 357 357 357 355 356 356 359 2 1 360 357 354 352 350 349 350 352 354 354 352 350 350 350 350 349 347 345 344 341 335 334 332 330 329 328 328 329 325 317 306 294 282 272 264 258 252
309 286 296 153 129 137 224 234 284 271 193 229 275 271 242 262 270 259 256 283 272 272 280 279 276 298 37 73 108 103 61 47 34 24 18 10 7 2 357 352 346 348 351 353 351 345 350 355 355 355 353 350 348 346 347 346 348 350 350 348 346 345 346 345 345 345 341 340 338 333 332 329 326 325 323 322 323 320 316 313 304 293 284 276 267 260
269 257 275 273 205 286 279 230 303 311 292 262 263 261 243 229 258 272 266 245 261 272 278 280 277 280 74 66 89 86 63 54 40 20 6 357 354 351 349 344 341 345 347 349 348 341 341 346 349 353 351 348 345 343 345 346 345 346 345 343 342 341 343 343 343 342 339 337 335 333 331 328 325 324 322 320 318 314 312 313 310 302 294 285 276 269
271 250 268 284 285 284 291 346 330 292 285 278 274 273 278 269 268 277 271 206 219 270 274 279 281 284 94 79 82 79 64 56 36 6 352 346 346 345 344 342 341 344 345 347 346 336 334 340 346 349 348 347 345 342 343 343 342 342 342 341 339 339 341 341 341 340 338 336 333 332 330 327 324 322 320 319 317 313 312 311 311 307 301 293 284 275
301 273 267 275 275 276 286 339 56 268 260 260 266 287 358 303 275 276 283 303 287 266 264 276 275 263 110 98 81 74 61 46 8 351 351 346 347 348 343 341 339 337 339 343 343 334 328 336 342 344 345 345 342 339 339 339 340 340 339 339 338 337 338 338 338 337 336 334 332 330 329 327 325 321 318 318 315 313 312 311 310 310 307 302 293 282
253 255 262 275 280 280 276 129 105 190 175 155 195 61 358 298 303 284 287 321 291 270 274 274 268 246 118 114 85 63 35 16 360 358 356 349 349 346 342 341 337 333 334 337 341 334 324 329 336 339 342 342 337 334 333 334 336 337 337 337 336 334 334 334 334 335 334 332 330 330 329 326 324 321 319 318 314 312 310 310 309 308 307 305 299 290
292 263 289 301 300 302 303 328 206 234 209 269 313 52 29 342 7 292 281 287 265 261 261 268 271 253 125 140 70 26 10 3 2 3 357 350 347 343 341 340 333 329 328 330 335 331 321 322 329 334 337 336 331 328 326 326 328 330 331 332 331 331 331 331 331 332 332 330 328 328 328 327 324 321 319 317 314 312 309 307 307 306 304 303 299 292
278 276 283 292 297 304 305 300 307 321 316 306 304 97 58 22 336 287 285 268 263 267 259 265 282 329 113 125 25 6 2 358 355 354 352 348 344 340 337 333 329 326 322 324 328 326 319 316 321 328 332 330 324 319 319 319 321 323 324 325 326 326 326 328 328 328 329 329 326 324 325 326 325 321 319 316 313 311 309 306 304 304 301 299 295 291
269 272 249 255 270 277 279 287 312 338 316 300 309 334 22 14 346 295 277 276 292 298 276 288 346 341 338 9 9 358 357 355 351 349 347 344 338 334 331 327 324 320 316 319 322 320 315 312 317 322 325 324 319 315 314 314 314 316 317 318 320 321 322 323 324 324 325 326 325 322 320 322 322 319 317 315 312 310 309 307 304 303 301 298 293 290
269 271 249 245 258 267 278 294 315 323 307 304 325 346 3 353 329 267 268 309 346 309 277 343 8 334 330 0 1 353 355 351 345 342 338 332 328 326 324 322 319 315 314 317 318 318 317 314 318 320 321 321 318 316 315 314 311 311 311 312 315 317 317 318 320 321 321 321 324 322 319 317 317 314 312 312 311 310 309 308 305 303 303 300 294 289
269 274 264 230 264 276 288 303 309 306 305 327 3 359 353 348 339 315 313 351 11 315 288 330 340 321 331 357 349 349 351 341 333 330 325 322 323 323 321 319 316 314 315 316 318 320 319 317 319 319 319 320 319 317 316 314 311 308 305 306 309 310 313 315 316 318 320 318 320 321 319 314 311 309 308 308 309 310 310 308 307 304 302 301 297 292
236 276 311 160 280 292 306 315 317 312 314 354 34 16 9 24 43 36 354 346 348 312 297 319 318 311 337 6 349 342 339 330 324 321 320 322 323 323 321 318 313 312 315 318 321 321 318 318 319 319 320 320 319 317 316 314 311 308 304 303 303 304 309 313 313 316 318 318 316 318 316 311 306 305 306 308 309 310 309 307 307 305 302 301 299 296
244 288 50 59 290 299 321 334 334 317 307 347 39 27 21 17 21 28 356 338 337 320 312 316 308 303 349 1 342 329 327 326 322 319 318 319 320 320 317 313 311 313 316 320 320 318 317 318 319 320 322 321 318 317 315 313 311 309 307 305 303 301 304 307 309 311 313 313 314 315 313 309 306 304 305 308 309 309 308 307 305 304 302 300 299 297
293 292 13 20 307 306 328 339 321 309 301 78 50 17 7 358 347 347 344 339 333 320 313 312 311 321 344 338 327 322 324 324 322 321 319 316 317 315 311 309 312 314 314 315 317 316 317 319 319 321 322 321 319 316 314 313 311 308 307 306 303 300 299 300 302 304 308 312 314 315 311 307 306 304 305 308 309 308 307 306 304 302 300 299 298 297
333 317 325 348 315 302 312 318 312 305 293 88 46 15 1 345 328 325 335 333 325 315 311 316 327 330 327 324 322 323 324 322 321 321 317 315 313 309 307 308 309 308 307 309 312 314 316 317 317 319 320 319 318 316 314 312 309 305 304 305 302 297 296 296 295 300 307 310 311 312 309 306 305 303 303 306 306 305 305 304 302 301 300 299 298 295
16 332 320 335 287 292 309 315 311 308 307 58 59 27 3 342 327 325 325 322 318 311 320 339 335 327 326 326 324 321 319 318 316 315 315 314 310 306 307 305 299 301 308 309 309 310 312 313 315 317 318 317 317 316 314 311 307 302 302 302 300 295 293 294 294 300 306 305 305 308 308 305 303 301 301 303 302 301 302 302 301 300 301 300 298 293
325 316 308 310 250 288 314 328 319 320 350 112 74 22 4 349 339 331 318 316 319 313 329 339 334 330 329 325 321 318 314 313 312 311 311 312 309 307 306 304 303 307 309 308 306 306 308 310 314 316 317 317 317 316 314 310 307 303 302 301 298 293 292 292 293 297 300 299 302 307 305 302 302 301 301 302 300 299 299 299 299 301 302 301 298 293
278 285 291 265 256 296 318 331 323 329 86 71 16 10 9 357 345 337 322 319 325 318 324 335 331 328 327 323 320 319 315 314 312 308 308 313 315 312 307 307 309 308 306 307 304 303 306 310 313 314 315 316 316 316 313 311 308 305 302 300 299 295 291 290 290 293 295 298 304 306 303 301 301 299 300 301 300 298 298 298 299 301 302 301 297 291
251 272 314 303 290 315 311 313 311 268 98 38 358 357 6 347 329 325 312 304 313 325 334 334 328 324 324 321 319 318 315 314 310 304 310 316 319 316 311 309 308 304 303 304 301 299 303 309 313 314 314 314 315 315 313 311 311 308 303 300 298 294 290 287 289 294 298 301 303 304 303 302 298 296 298 299 299 299 299 299 299 300 301 301 298 292
313 317 325 318 330 353 321 314 318 301 319 6 333 329 349 338 319 315 302 278 290 353 336 330 324 321 322 320 320 320 317 312 306 307 316 320 319 318 313 310 307 303 300 300 298 299 305 312 314 313 312 313 313 313 314 315 314 311 305 301 296 292 291 291 293 298 300 301 302 303 302 300 297 296 296 295 296 297 298 299 298 299 299 299 297 293
26 6 337 332 342 358 339 321 321 318 328 357 321 326 345 339 326 317 293 270 359 346 330 324 321 320 322 322 321 320 316 309 305 312 321 321 319 317 314 310 309 307 303 300 301 306 312 316 315 311 311 313 311 313 317 317 313 308 303 300 295 294 296 298 300 301 300 300 302 302 301 298 295 294 294 294 295 296 297 297 297 297 298 298 296 294
20 10 8 12 360 350 346 325 315 311 197 309 323 334 346 338 326 314 293 309 336 330 321 319 318 316 317 317 317 316 313 309 308 314 320 318 316 316 314 311 312 312 309 306 312 318 318 316 312 309 310 312 312 316 318 315 311 307 302 297 295 297 301 304 305 303 300 300 301 299 298 297 293 291 291 293 295 297 297 297 297 297 299 298 297 294
7 357 17 14 355 349 347 327 316 302 195 304 332 341 343 335 326 318 311 316 320 317 315 317 316 315 317 316 314 311 308 308 311 313 315 316 316 317 317 318 321 323 323 323 324 322 317 312 309 308 311 314 315 317 316 314 313 309 302 294 295 301 305 308 308 304 299 299 298 297 297 296 292 290 290 292 295 297 298 299 298 298 300 299 298 295
356 344 5 356 346 348 339 314 311 301 188 343 334 335 341 339 329 316 310 308 312 316 319 319 318 320 322 320 315 311 309 312 312 311 313 317 320 322 325 331 337 338 333 327 323 321 320 317 314 314 315 316 316 317 317 316 311 304 296 292 301 308 310 310 307 303 301 301 300 302 304 300 293 293 294 295 296 297 301 304 302 300 301 299 297 293
342 328 354 355 347 337 326 319 317 311 332 340 332 330 341 335 317 309 309 311 315 319 320 320 319 323 324 321 316 313 312 311 310 311 316 320 323 328 333 338 339 334 327 323 323 328 331 326 320 318 318 317 318 318 317 314 309 304 303 307 310 311 311 308 305 303 303 303 303 306 307 303 297 299 302 302 301 299 303 306 306 305 304 301 299 294
22 12 346 329 1 356 325 314 307 303 315 330 331 327 324 317 311 313 315 317 319 320 320 320 320 323 322 319 316 313 310 311 315 319 323 323 326 331 333 333 332 328 325 326 332 336 331 323 319 318 318 318 319 318 316 315 315 316 316 313 312 311 309 306 305 305 304 303 303 305 306 304 302 304 306 305 303 301 302 305 308 309 306 303 302 298
19 25 316 281 306 324 289 273 284 296 309 323 326 320 317 316 317 320 319 319 319 319 321 321 318 320 320 317 314 312 312 319 324 325 323 323 325 326 325 326 328 327 325 328 333 332 327 322 319 318 317 318 318 317 315 316 317 315 311 311 312 312 309 308 308 307 304 301 300 301 303 305 305 304 304 303 300 300 301 304 309 309 307 307 306 300
335 346 314 285 309 313 286 275 298 307 314 321 320 317 318 319 321 323 322 320 320 321 323 321 317 317 317 314 312 314 320 325 325 322 321 320 318 317 319 323 327 325 322 323 329 329 326 322 318 316 317 318 317 316 315 314 314 310 308 310 314 313 311 311 310 306 302 299 298 298 301 304 305 303 303 302 299 298 298 302 306 306 304 306 304 300
345 343 328 310 320 318 303 306 318 318 319 320 318 319 321 321 322 324 323 320 320 321 321 320 319 317 314 314 315 318 324 326 323 320 318 315 312 315 319 324 325 322 319 322 328 327 324 321 319 318 317 316 317 316 313 311 310 309 309 313 317 316 315 314 311 306 302 300 300 300 301 302 302 304 305 303 300 298 296 296 299 299 300 302 300 300
337 334 326 321 322 310 300 310 318 317 315 317 318 320 321 321 321 322 321 319 318 319 319 319 319 318 316 317 319 320 323 325 322 317 315 313 313 317 321 322 320 318 320 326 328 327 323 321 320 318 316 316 317 316 314 312 312 314 317 322 323 320 318 317 313 308 306 305 302 300 300 300 302 305 305 303 302 300 296 295 294 290 289 293 295 293
328 327 327 323 317 305 305 317 322 318 314 318 322 323 322 322 321 320 321 321 320 320 320 318 318 319 317 317 318 321 322 321 319 317 316 314 315 319 320 318 317 320 326 328 326 325 323 320 319 318 316 315 316 318 318 318 318 322 325 325 324 324 323 321 316 311 308 306 301 299 302 304 304 303 303 303 303 299 292 295 298 291 286 290 293 287
338 337 338 328 319 315 317 323 325 321 315 318 323 323 322 322 320 320 322 323 322 323 322 320 320 319 317 317 320 323 320 318 319 319 317 315 318 319 317 317 322 327 328 326 324 323 321 320 319 318 315 315 318 320 319 320 322 325 326 326 328 330 327 324 318 311 307 307 306 308 311 309 306 306 305 304 304 302 299 299 296 287 282 286 291 289
350 341 338 326 313 308 311 317 323 318 310 312 317 319 319 320 319 319 321 322 321 323 324 324 321 319 318 321 327 328 323 319 319 319 317 317 319 318 318 325 331 328 324 324 324 323 322 322 321 318 317 319 320 320 320 322 325 327 329 331 334 332 329 327 322 312 310 314 314 314 312 308 307 308 307 305 305 306 306 305 301 292 282 280 287 288